Location: Unspecified
(0.0000°N, 0.0000°E)
Time: 00:28:57
(UTC+00:00)

Envisat - Pass Details

Date: 22 January 2021
Orbit: 764 x 766 km, 98.1° (Epoch: 16 January)

Event Time Altitude Azimuth Distance (km) Brightness Sun altitude
Rises 04:58:09 0° 23° (NNE) 3,215 6.3 -17.3°
Reaches altitude 10° 05:00:32 10° 29° (NNE) 2,292 5.6 -16.7°
Maximum altitude 05:05:21 46° 102° (ESE) 1,015 4.1 -15.6°
Drops below altitude 10° 05:10:12 10° 175° (S) 2,302 5.8 -14.4°
Sets 05:12:35 0° 181° (S) 3,230 6.5 -13.9°
